• In Schweiz
  • Länderverzeichnis
  • Für 7 Tage
  • Wassertemperatur
  • Satellitenkarten
  • Wetterkarte
  • Widgets
  • user-avatar
    Anmelden

    Stündliche Wetter Saltykovo

    Heute, 23 Mai, Mittwoch

    Zeit Temperatur Niederschläge Wind Luftdruck Luftfeuchtigkeit
    00:00 +17°C° 0 mm 2 m/S 756 mmHg 71%
    01:00 +17°C° 0 mm 2 m/S 756 mmHg 72%
    02:00 +16°C° 0 mm 2 m/S 755 mmHg 72%
    03:00 +17°C° 0 mm 2 m/S 755 mmHg 73%
    04:00 +17°C° 0 mm 2 m/S 755 mmHg 74%
    05:00 +17°C° 0 mm 2 m/S 755 mmHg 75%
    06:00 +17°C° 0 mm 3 m/S 755 mmHg 76%
    07:00 +18°C° 0,1 mm 3 m/S 755 mmHg 73%
    08:00 +19°C° 0,1 mm 3 m/S 755 mmHg 70%
    09:00 +20°C° 0 mm 3 m/S 755 mmHg 67%
    10:00 +21°C° 0,1 mm 3 m/S 755 mmHg 67%
    11:00 +21°C° 0,1 mm 3 m/S 754 mmHg 67%
    12:00 +22°C° 0,1 mm 3 m/S 754 mmHg 67%
    13:00 +22°C° 0 mm 3 m/S 754 mmHg 67%
    14:00 +22°C° 0 mm 3 m/S 753 mmHg 66%
    15:00 +24°C° 0 mm 3 m/S 753 mmHg 66%
    16:00 +24°C° 0 mm 2 m/S 753 mmHg 68%
    17:00 +24°C° 0 mm 2 m/S 753 mmHg 71%
    18:00 +23°C° 0 mm 2 m/S 752 mmHg 73%
    19:00 +22°C° 0,1 mm 1 m/S 752 mmHg 78%
    20:00 +21°C° 0,1 mm 1 m/S 752 mmHg 84%
    21:00 +19°C° 0,1 mm 1 m/S 752 mmHg 89%
    22:00 +19°C° 0,2 mm 1 m/S 752 mmHg 91%
    23:00 +19°C° 0,2 mm 1 m/S 752 mmHg 92%

    Morgen, 24 Mai, Donnerstag

    Zeit Temperatur Niederschläge Wind Luftdruck Luftfeuchtigkeit
    00:00 +18°C° 0,2 mm 1 m/S 752 mmHg 94%
    01:00 +17°C° 0,7 mm 2 m/S 752 mmHg 94%
    02:00 +17°C° 0,7 mm 2 m/S 752 mmHg 94%
    03:00 +17°C° 0,7 mm 3 m/S 751 mmHg 94%
    04:00 +17°C° 0,7 mm 2 m/S 751 mmHg 94%
    05:00 +18°C° 0,7 mm 1 m/S 751 mmHg 93%
    06:00 +18°C° 0,7 mm 1 m/S 750 mmHg 93%
    07:00 +18°C° 0,4 mm 1 m/S 750 mmHg 92%
    08:00 +18°C° 0,4 mm 2 m/S 750 mmHg 91%
    09:00 +18°C° 0,4 mm 2 m/S 750 mmHg 90%
    10:00 +19°C° 0,4 mm 2 m/S 750 mmHg 88%
    11:00 +19°C° 0,4 mm 2 m/S 750 mmHg 87%
    12:00 +19°C° 0,4 mm 2 m/S 749 mmHg 86%
    13:00 +19°C° 0,3 mm 2 m/S 749 mmHg 85%
    14:00 +20°C° 0,3 mm 2 m/S 749 mmHg 85%
    15:00 +20°C° 0,3 mm 2 m/S 749 mmHg 84%
    16:00 +20°C° 0,2 mm 3 m/S 748 mmHg 84%
    17:00 +20°C° 0,2 mm 3 m/S 748 mmHg 85%
    18:00 +20°C° 0,2 mm 3 m/S 748 mmHg 85%
    19:00 +19°C° 0,1 mm 3 m/S 748 mmHg 88%
    20:00 +18°C° 0,1 mm 3 m/S 748 mmHg 90%
    21:00 +17°C° 0,1 mm 3 m/S 748 mmHg 93%
    22:00 +16°C° 0 mm 3 m/S 748 mmHg 92%
    23:00 +16°C° 0 mm 3 m/S 748 mmHg 92%

    übermorgen, 25 Mai, Freitag

    Zeit Temperatur Niederschläge Wind Luftdruck Luftfeuchtigkeit
    00:00 +14°C° 0 mm 4 m/S 748 mmHg 91%
    01:00 +14°C° 0 mm 4 m/S 748 mmHg 91%
    02:00 +13°C° 0 mm 5 m/S 748 mmHg 91%
    03:00 +13°C° 0 mm 5 m/S 748 mmHg 91%
    04:00 +13°C° 0 mm 5 m/S 749 mmHg 88%
    05:00 +11°C° 0 mm 6 m/S 749 mmHg 84%
    06:00 +11°C° 0 mm 6 m/S 750 mmHg 80%
    07:00 +12°C° 0 mm 7 m/S 750 mmHg 73%
    08:00 +12°C° 0 mm 7 m/S 751 mmHg 65%
    09:00 +14°C° 0 mm 7 m/S 751 mmHg 57%
    10:00 +15°C° 0 mm 7 m/S 752 mmHg 54%
    11:00 +15°C° 0 mm 7 m/S 752 mmHg 50%
    12:00 +16°C° 0 mm 7 m/S 753 mmHg 47%
    13:00 +16°C° 0 mm 7 m/S 753 mmHg 46%
    14:00 +16°C° 0 mm 7 m/S 753 mmHg 45%
    15:00 +15°C° 0 mm 7 m/S 753 mmHg 45%
    16:00 +15°C° 0 mm 7 m/S 754 mmHg 47%
    17:00 +14°C° 0 mm 6 m/S 754 mmHg 50%
    18:00 +14°C° 0 mm 5 m/S 754 mmHg 53%
    19:00 +12°C° 0 mm 5 m/S 755 mmHg 55%
    20:00 +11°C° 0 mm 4 m/S 755 mmHg 57%
    21:00 +9°C° 0 mm 3 m/S 756 mmHg 60%
    22:00 +8°C° 0 mm 3 m/S 757 mmHg 61%
    23:00 +8°C° 0 mm 3 m/S 757 mmHg 62%

    26 Mai, Samstag

    Zeit Temperatur Niederschläge Wind Luftdruck Luftfeuchtigkeit
    00:00 +7°C° 0 mm 3 m/S 757 mmHg 64%
    01:00 +5°C° 0 mm 3 m/S 758 mmHg 65%
    02:00 +5°C° 0 mm 3 m/S 758 mmHg 67%
    03:00 +4°C° 0 mm 3 m/S 759 mmHg 69%
    04:00 +5°C° 0 mm 3 m/S 759 mmHg 67%
    05:00 +5°C° 0 mm 3 m/S 759 mmHg 65%
    06:00 +7°C° 0 mm 3 m/S 760 mmHg 63%
    07:00 +8°C° 0 mm 4 m/S 760 mmHg 57%
    08:00 +11°C° 0 mm 4 m/S 761 mmHg 51%
    09:00 +12°C° 0 mm 5 m/S 761 mmHg 45%
    10:00 +13°C° 0 mm 4 m/S 761 mmHg 43%
    11:00 +14°C° 0 mm 4 m/S 761 mmHg 42%
    12:00 +15°C° 0 mm 4 m/S 761 mmHg 40%
    13:00 +17°C° 0 mm 4 m/S 761 mmHg 40%
    14:00 +17°C° 0 mm 4 m/S 760 mmHg 39%
    15:00 +18°C° 0 mm 3 m/S 760 mmHg 39%
    16:00 +18°C° 0 mm 3 m/S 760 mmHg 43%
    17:00 +18°C° 0 mm 2 m/S 760 mmHg 46%
    18:00 +18°C° 0 mm 2 m/S 759 mmHg 50%
    19:00 +15°C° 0 mm 1 m/S 759 mmHg 54%
    20:00 +13°C° 0 mm 1 m/S 759 mmHg 58%
    21:00 +10°C° 0 mm 0 m/S 759 mmHg 61%
    22:00 +11°C° 0 mm 1 m/S 759 mmHg 62%
    23:00 +10°C° 0 mm 1 m/S 759 mmHg 64%

    27 Mai, Sonntag

    Zeit Temperatur Niederschläge Wind Luftdruck Luftfeuchtigkeit
    00:00 +9°C° 0 mm 2 m/S 759 mmHg 65%
    01:00 +9°C° 0 mm 2 m/S 759 mmHg 67%
    02:00 +9°C° 0 mm 2 m/S 759 mmHg 70%
    03:00 +8°C° 0 mm 2 m/S 759 mmHg 73%
    04:00 +9°C° 0 mm 2 m/S 759 mmHg 74%
    05:00 +10°C° 0 mm 3 m/S 759 mmHg 76%
    06:00 +11°C° 0 mm 3 m/S 758 mmHg 78%
    07:00 +14°C° 0 mm 3 m/S 758 mmHg 73%
    08:00 +17°C° 0 mm 3 m/S 758 mmHg 68%
    09:00 +19°C° 0 mm 3 m/S 757 mmHg 63%
    10:00 +21°C° 0 mm 4 m/S 757 mmHg 58%
    11:00 +22°C° 0 mm 4 m/S 757 mmHg 53%
    12:00 +25°C° 0 mm 5 m/S 756 mmHg 48%
    13:00 +25°C° 0 mm 5 m/S 756 mmHg 48%
    14:00 +25°C° 0 mm 5 m/S 755 mmHg 48%
    15:00 +25°C° 0 mm 5 m/S 755 mmHg 47%
    16:00 +25°C° 0 mm 5 m/S 754 mmHg 52%
    17:00 +23°C° 0 mm 4 m/S 754 mmHg 56%
    18:00 +22°C° 0 mm 4 m/S 754 mmHg 60%
    19:00 +21°C° 0 mm 4 m/S 753 mmHg 64%
    20:00 +19°C° 0 mm 4 m/S 753 mmHg 68%
    21:00 +18°C° 0 mm 4 m/S 753 mmHg 72%
    22:00 +17°C° 0 mm 4 m/S 753 mmHg 72%
    23:00 +17°C° 0 mm 4 m/S 752 mmHg 72%

    28 Mai, Montag

    Zeit Temperatur Niederschläge Wind Luftdruck Luftfeuchtigkeit
    00:00 +15°C° 0 mm 4 m/S 752 mmHg 72%
    01:00 +15°C° 0 mm 4 m/S 752 mmHg 73%
    02:00 +14°C° 0 mm 4 m/S 752 mmHg 75%
    03:00 +14°C° 0 mm 4 m/S 751 mmHg 76%
    04:00 +14°C° 0 mm 4 m/S 751 mmHg 77%
    05:00 +14°C° 0 mm 4 m/S 751 mmHg 78%
    06:00 +14°C° 0 mm 4 m/S 751 mmHg 79%
    07:00 +15°C° 0 mm 4 m/S 751 mmHg 74%
    08:00 +18°C° 0 mm 4 m/S 751 mmHg 69%
    09:00 +19°C° 0 mm 5 m/S 751 mmHg 63%
    10:00 +19°C° 0 mm 5 m/S 751 mmHg 59%
    11:00 +20°C° 0 mm 5 m/S 751 mmHg 54%
    12:00 +20°C° 0 mm 6 m/S 751 mmHg 50%
    13:00 +20°C° 0 mm 6 m/S 750 mmHg 49%
    14:00 +20°C° 0 mm 5 m/S 750 mmHg 49%
    15:00 +19°C° 0 mm 5 m/S 750 mmHg 49%
    16:00 +19°C° 0 mm 4 m/S 750 mmHg 51%
    17:00 +18°C° 0 mm 4 m/S 750 mmHg 53%
    18:00 +18°C° 0 mm 3 m/S 749 mmHg 55%
    19:00 +16°C° 0 mm 3 m/S 749 mmHg 60%
    20:00 +14°C° 0 mm 3 m/S 749 mmHg 65%
    21:00 +13°C° 0 mm 2 m/S 749 mmHg 70%
    22:00 +11°C° 0,5 mm 3 m/S 749 mmHg 77%
    23:00 +10°C° 0,5 mm 4 m/S 749 mmHg 85%
    Mehr zeigen